Temperature
6 6 5 5 5 4 4 3 3 3 2 2 2 1 1 -0 -1 -2 -1 -2 -2 -3 -4 -4 -5 -4 -4 -4 -3 -3 -3 -2 -2 -2 -2 -1 -1 -1 -0 0 1 2 3
6 6 5 5 4 4 3 3 3 2 2 2 1 1 0 -0 -1 -2 -2 -3 -3 -3 -4 -5 -5 -5 -5 -4 -4 -4 -4 -3 -3 -3 -2 -2 -2 -2 -1 -1 -0 1 1
6 5 5 5 4 4 3 3 2 2 1 1 1 0 0 -0 -1 -2 -3 -3 -4 -4 -4 -5 -6 -6 -6 -5 -5 -5 -4 -4 -4 -3 -3 -3 -2 -2 -2 -1 -1 -0 1
6 5 5 4 4 3 3 2 2 1 1 0 0 -0 -0 -1 -1 -2 -3 -3 -4 -5 -5 -6 -6 -6 -6 -6 -6 -6 -5 -5 -5 -4 -4 -3 -3 -3 -2 -2 -1 -1 -0
6 5 5 4 4 3 3 2 2 1 0 -0 -1 -0 -1 -1 -1 -2 -3 -4 -4 -5 -5 -6 -6 -7 -7 -7 -7 -6 -6 -6 -5 -5 -4 -4 -3 -3 -3 -2 -2 -1 -1
6 5 5 4 4 3 3 2 1 1 0 -1 -1 -1 -1 -1 -2 -2 -3 -3 -4 -5 -5 -6 -7 -7 -7 -7 -7 -7 -7 -6 -6 -5 -5 -4 -4 -3 -3 -3 -2 -2 -1
6 5 5 4 4 3 2 2 1 0 -1 -2 -3 -4 -3 -3 -2 -2 -3 -3 -4 -5 -5 -6 -7 -7 -7 -8 -8 -7 -7 -7 -6 -6 -5 -5 -4 -4 -3 -3 -2 -2 -1
6 5 5 4 4 3 2 2 1 0 -1 -2 -4 -5 -5 -4 -5 -4 -3 -4 -4 -5 -5 -6 -7 -7 -7 -8 -8 -8 -8 -8 -7 -7 -6 -5 -5 -4 -4 -3 -3 -2 -1
6 6 5 4 4 3 2 2 1 -0 -1 -3 -3 -4 -6 -4 -5 -6 -6 -5 -5 -5 -6 -6 -7 -7 -8 -8 -8 -8 -8 -8 -8 -7 -6 -6 -5 -5 -4 -4 -3 -3 -2
7 6 5 5 4 3 2 2 1 0 -1 -2 -4 -4 -5 -6 -7 -7 -6 -6 -6 -6 -7 -7 -7 -8 -8 -8 -8 -9 -9 -9 -8 -8 -7 -6 -6 -5 -4 -4 -3 -3 -2
9 7 6 5 4 3 3 2 1 0 -1 -2 -3 -4 -5 -6 -7 -9 -8 -6 -6 -6 -7 -7 -7 -8 -8 -8 -9 -9 -9 -9 -9 -8 -7 -7 -6 -6 -5 -4 -4 -4 -3
10 8 7 5 4 3 3 2 1 -0 -1 -1 -3 -4 -5 -6 -7 -7 -8 -7 -7 -6 -7 -7 -7 -7 -8 -8 -9 -9 -9 -9 -9 -9 -8 -8 -7 -6 -6 -5 -5 -5 -4
11 10 8 6 5 4 3 2 1 -0 -1 -2 -2 -3 -4 -5 -7 -7 -8 -8 -7 -7 -7 -7 -7 -7 -7 -8 -8 -9 -9 -9 -9 -9 -9 -8 -8 -7 -7 -6 -6 -5 -5
11 9 8 6 5 4 3 2 1 -0 -1 -2 -2 -3 -4 -5 -6 -7 -8 -9 -9 -8 -7 -7 -7 -7 -7 -8 -9 -9 -10 -10 -9 -9 -9 -9 -8 -8 -7 -7 -7 -6 -6
10 8 7 5 4 3 2 1 1 -0 -1 -1 -2 -3 -4 -4 -6 -7 -8 -9 -10 -9 -8 -7 -7 -7 -8 -8 -9 -9 -9 -9 -9 -9 -9 -9 -9 -8 -8 -7 -7 -7 -6
8 7 6 4 3 2 2 1 0 -0 -1 -1 -2 -3 -4 -4 -6 -7 -8 -8 -9 -10 -10 -8 -8 -8 -8 -8 -9 -9 -9 -9 -9 -9 -9 -9 -9 -8 -8 -8 -8 -7 -7
7 6 4 2 2 1 1 1 0 -0 -1 -2 -2 -3 -3 -4 -6 -6 -8 -8 -9 -10 -10 -9 -8 -8 -8 -8 -9 -9 -9 -9 -9 -9 -9 -9 -9 -9 -9 -8 -8 -7 -7
6 4 3 1 0 0 0 0 -0 -1 -1 -2 -2 -3 -3 -4 -5 -6 -7 -8 -9 -9 -10 -10 -9 -9 -9 -9 -9 -9 -9 -9 -9 -9 -9 -9 -9 -9 -9 -9 -8 -8 -7
6 4 3 2 1 0 -0 -0 -0 -1 -2 -2 -2 -3 -3 -5 -5 -6 -7 -8 -9 -9 -10 -9 -9 -9 -9 -9 -9 -9 -9 -9 -9 -9 -9 -9 -9 -9 -9 -9 -9 -8 -8
5 3 2 1 0 -1 -1 -1 -1 -2 -2 -2 -3 -3 -4 -4 -5 -6 -7 -8 -9 -9 -9 -9 -9 -9 -8 -8 -8 -9 -9 -9 -9 -9 -9 -9 -10 -10 -9 -9 -9 -9 -8
5 3 1 0 -1 -2 -2 -2 -2 -2 -3 -3 -3 -3 -4 -4 -5 -6 -7 -7 -8 -8 -8 -8 -8 -8 -8 -8 -8 -8 -9 -9 -9 -9 -9 -10 -10 -10 -10 -10 -9 -9 -9
4 3 1 -0 -2 -3 -3 -3 -3 -3 -3 -3 -3 -3 -4 -4 -5 -6 -7 -8 -8 -8 -8 -8 -8 -8 -8 -8 -8 -9 -9 -9 -9 -9 -10 -10 -10 -10 -10 -10 -9 -9 -9
3 2 1 -1 -2 -3 -4 -4 -4 -4 -3 -3 -4 -4 -4 -4 -5 -6 -6 -8 -8 -8 -8 -8 -8 -8 -8 -8 -9 -9 -9 -9 -9 -10 -10 -10 -10 -10 -10 -10 -10 -9 -9
3 1 -0 -2 -3 -4 -5 -5 -5 -4 -4 -4 -4 -4 -5 -5 -5 -6 -7 -8 -8 -8 -8 -8 -8 -9 -9 -9 -9 -9 -9 -10 -10 -10 -10 -10 -10 -10 -10 -10 -10 -9 -9
2 1 -1 -2 -4 -4 -5 -5 -5 -5 -5 -4 -4 -5 -5 -5 -5 -7 -8 -8 -8 -8 -8 -8 -8 -8 -9 -9 -9 -10 -10 -11 -11 -11 -11 -11 -11 -11 -10 -10 -10 -9 -8
1 -1 -2 -3 -4 -5 -5 -5 -5 -5 -5 -5 -5 -5 -5 -5 -6 -7 -8 -8 -8 -8 -8 -8 -9 -9 -9 -10 -10 -11 -11 -12 -12 -11 -11 -11 -11 -11 -11 -10 -9 -9 -8
Wind_Speed
10 9 8 7 6 5 4 2 1 2 3 4 5 6 8 9 10 11 10 13 16 17 19 20 21 22 23 24 25 26 27 28 29 29 30 31 32 33 34 35 36 37 38
11 10 9 8 7 6 5 3 2 3 4 5 7 8 9 10 11 12 12 13 15 16 18 19 20 21 22 24 25 26 27 28 29 30 30 31 32 33 34 36 37 38 39
14 12 10 9 9 8 6 5 4 4 5 6 8 9 10 11 12 13 13 13 13 14 16 18 19 21 22 23 25 26 27 28 29 30 31 32 33 34 35 36 38 39 40
16 14 11 10 10 9 8 7 6 5 5 6 7 8 9 11 13 14 13 13 13 13 14 17 19 21 22 23 25 26 27 28 30 31 32 33 34 35 36 38 39 40 41
19 16 13 11 12 10 9 8 7 6 6 7 7 8 10 11 12 13 13 14 14 14 14 16 19 21 22 23 25 26 27 29 30 31 33 34 35 36 37 39 40 41 42
21 18 14 14 13 10 9 8 8 8 7 7 7 9 10 12 12 12 13 13 13 14 15 16 16 17 20 22 24 26 27 29 31 32 33 34 35 37 38 40 41 42 43
22 21 16 15 15 11 11 11 9 9 8 7 7 8 10 11 11 10 11 12 13 14 15 16 16 16 16 21 23 25 27 29 31 32 34 35 36 38 39 41 42 43 43
23 21 20 16 16 12 13 12 11 9 8 8 6 6 6 6 8 9 9 10 12 13 14 16 17 18 19 18 20 25 28 29 31 32 34 36 37 39 40 41 42 42 43
25 24 23 20 17 15 13 14 13 13 10 9 9 7 6 5 5 7 11 10 11 11 13 15 18 19 20 20 21 23 26 28 31 33 35 37 38 40 40 41 40 42 42
26 26 25 23 19 16 15 15 14 13 12 10 9 10 10 8 7 6 6 9 12 13 14 14 17 19 21 20 22 26 28 29 31 33 35 37 39 40 40 41 40 41 40
26 27 26 23 20 17 17 16 15 15 13 12 10 9 10 11 12 10 10 11 11 12 13 14 16 18 20 21 21 24 28 30 32 33 35 37 39 40 41 41 41 41 40
18 25 26 24 22 18 18 17 16 17 15 14 12 11 11 9 9 11 13 14 14 13 14 14 15 17 19 20 23 27 29 30 32 34 35 36 38 39 40 41 42 41 41
17 22 22 22 20 20 20 18 17 17 17 16 15 12 12 12 12 12 13 15 16 15 16 15 14 16 17 19 20 25 27 30 32 33 34 35 37 38 40 41 41 41 41
18 19 23 22 22 22 20 18 16 16 15 16 16 16 12 12 12 12 13 14 15 16 17 19 14 15 17 18 21 25 25 29 31 32 33 35 36 38 39 39 40 41 40
16 20 21 22 22 21 21 19 15 17 16 16 16 16 14 13 12 13 13 13 14 16 18 20 16 16 17 18 22 22 23 28 31 33 35 36 37 38 38 39 39 39 38
19 19 21 22 22 22 21 19 16 16 17 16 13 15 15 13 12 13 13 13 14 15 17 17 17 18 18 18 24 24 25 30 33 34 35 36 37 37 38 38 38 38 37
19 20 20 20 21 22 21 20 19 18 18 17 16 16 17 16 13 13 13 14 14 15 18 20 18 19 21 21 20 22 24 24 25 32 34 36 37 37 37 37 37 37 36
19 19 19 20 21 21 21 21 21 20 19 18 18 17 18 14 17 15 14 16 15 16 18 22 21 19 22 22 22 22 20 21 23 30 34 36 37 37 37 36 35 35 34
19 19 20 21 21 20 21 22 21 20 19 18 17 17 17 17 17 16 16 16 15 15 17 19 21 19 19 19 21 21 22 20 21 26 30 32 33 34 34 34 34 33 32
19 20 21 21 20 19 20 20 19 18 17 17 17 17 17 17 18 18 16 17 17 17 18 18 19 19 19 20 18 18 18 17 18 18 22 25 29 32 33 33 32 31 30
19 19 20 21 21 18 18 19 18 18 18 17 17 17 18 20 22 19 15 16 16 16 16 16 18 18 18 17 16 16 18 18 19 17 18 18 18 18 19 23 25 27 27
18 19 19 20 22 18 25 30 22 18 17 17 17 16 17 20 23 26 28 27 24 19 18 18 18 19 21 20 18 17 18 19 20 16 16 18 17 17 17 16 21 25 25
17 18 19 21 22 23 28 31 31 19 17 17 17 15 14 15 19 15 20 24 24 27 27 21 22 22 22 21 21 22 21 21 21 17 17 19 17 18 17 17 26 26 27
16 17 18 21 21 22 28 30 30 23 18 17 17 17 16 15 15 15 15 16 18 19 20 18 18 20 20 20 19 19 19 20 20 18 17 18 17 17 16 16 23 26 27
16 16 17 19 21 21 27 30 28 17 17 18 17 16 17 16 19 20 16 17 19 16 19 24 25 25 28 28 23 17 17 17 18 16 13 14 16 15 16 16 18 23 24
15 15 16 18 20 20 24 29 29 15 16 15 14 15 19 19 19 19 16 16 17 15 14 16 18 19 18 20 23 16 14 15 16 15 12 11 13 11 10 11 10 10 12
Wind_Direction
198 198 199 200 202 201 205 221 272 318 317 317 312 309 307 304 300 297 295 297 300 303 305 309 312 314 315 315 316 317 316 315 314 313 312 312 311 309 307 304 299 295 293
202 201 202 203 204 204 206 217 246 278 290 293 293 294 294 294 289 288 287 290 289 291 296 301 305 308 309 311 313 313 312 310 309 309 308 307 306 305 303 300 297 293 289
206 204 206 206 205 202 204 214 224 251 269 277 281 286 287 285 283 282 282 282 283 283 285 291 297 300 303 306 308 308 307 307 306 305 304 304 303 301 299 297 294 290 286
207 207 209 209 203 204 210 217 226 242 252 266 276 280 280 279 279 278 276 273 274 277 280 283 288 293 297 300 302 303 304 304 303 302 302 301 300 299 297 295 292 288 284
207 208 212 209 203 206 210 214 222 234 248 258 269 277 276 274 275 272 268 267 267 268 274 280 283 286 289 292 296 299 300 302 302 301 299 298 297 296 295 293 290 287 282
207 209 212 210 205 207 209 210 219 224 240 254 267 272 271 270 269 265 264 263 263 265 269 276 281 282 284 288 292 294 297 299 300 299 298 296 295 294 293 291 289 286 282
206 208 211 209 206 210 212 212 217 226 230 236 258 268 265 258 258 255 256 260 262 266 269 273 277 281 285 287 289 292 294 297 298 298 296 294 292 291 291 290 289 285 281
208 208 211 209 208 211 213 213 213 221 227 221 235 268 280 257 235 247 257 260 266 270 272 275 278 281 284 287 286 289 292 294 296 295 293 291 290 289 289 289 290 287 282
211 210 211 211 209 209 212 211 210 216 223 219 220 235 258 277 287 252 253 260 266 270 274 278 279 280 282 284 287 288 288 291 293 292 290 289 288 288 288 289 290 291 286
213 212 212 211 211 211 213 211 211 215 221 228 222 226 237 254 268 286 255 252 258 266 270 274 278 280 281 282 282 284 286 288 288 289 288 287 287 288 288 290 291 295 293
215 213 212 210 211 211 213 211 209 212 215 224 227 226 234 243 242 249 274 279 273 270 274 277 279 280 280 280 280 281 283 285 286 287 288 288 288 289 290 292 294 298 300
215 214 212 210 210 210 210 210 210 212 215 221 227 230 234 238 242 248 264 276 282 283 283 281 280 279 278 278 279 281 283 283 285 286 287 287 288 289 291 294 296 298 299
216 213 209 210 209 209 208 207 209 213 216 220 224 229 234 240 248 256 266 276 282 285 285 281 277 278 279 280 281 282 283 283 283 284 285 286 286 287 289 291 293 295 297
222 216 210 210 209 206 205 205 209 212 216 220 225 229 235 241 244 249 257 271 281 284 284 283 285 284 285 284 281 282 281 280 280 281 283 284 284 285 286 288 290 292 293
226 219 214 212 210 206 204 203 208 211 213 219 224 227 233 241 243 247 251 255 266 280 284 288 290 288 287 284 281 280 278 278 278 279 280 281 282 282 283 284 286 287 289
227 223 217 213 210 206 204 203 208 211 212 218 222 228 232 238 243 246 249 252 253 261 274 281 286 287 287 283 281 279 278 279 279 278 279 279 280 280 280 281 282 283 285
228 225 221 216 212 207 204 203 207 207 212 218 220 226 233 237 243 247 249 250 252 254 264 276 281 285 285 283 281 278 277 277 277 276 276 277 278 279 279 279 279 279 280
230 226 222 219 215 209 205 204 206 207 211 217 221 225 232 234 240 246 249 252 254 255 261 273 280 283 283 282 281 280 278 276 275 276 276 277 278 278 279 278 277 276 277
230 224 221 218 215 209 205 206 206 208 211 217 220 224 230 233 241 245 249 253 255 258 260 267 275 280 281 280 281 279 277 275 274 274 276 276 276 277 278 277 275 274 273
229 226 222 220 216 210 206 205 205 207 212 218 222 226 231 232 239 246 251 254 257 260 262 265 272 277 280 281 280 280 280 277 276 276 276 275 276 277 277 276 273 271 270
229 226 224 222 218 212 207 204 203 205 211 217 223 228 233 235 239 244 246 252 254 258 264 269 274 280 283 285 285 285 283 284 281 278 278 276 275 273 275 273 270 268 266
230 226 223 222 220 216 212 208 203 206 211 217 224 229 235 241 246 250 255 259 261 265 271 277 281 283 286 289 291 289 287 286 285 281 278 277 273 272 272 270 269 268 265
231 227 224 223 224 221 216 213 209 205 212 217 223 229 234 237 243 245 257 265 271 273 273 275 278 282 288 290 290 288 283 282 282 285 285 278 273 272 272 269 269 267 265
232 228 226 225 226 225 220 217 214 211 217 222 225 229 237 241 241 245 252 260 263 264 266 268 270 275 279 282 281 284 289 288 284 280 274 273 274 273 274 272 271 266 264
234 229 227 226 226 226 221 219 216 214 220 226 229 232 238 245 250 253 257 263 269 269 272 274 276 279 283 288 291 292 290 288 287 285 279 273 275 277 278 276 270 267 262
236 231 230 227 227 226 222 219 216 214 220 225 229 232 237 242 249 254 257 265 272 279 284 286 284 283 283 285 286 281 281 282 282 285 282 271 272 278 281 274 273 279 272
Height
1568 1567 1566 1566 1565 1564 1563 1562 1561 1559 1557 1555 1553 1551 1548 1545 1542 1539 1535 1532 1529 1526 1524 1523 1522 1521 1519 1517 1515 1513 1510 1508 1505 1503 1500 1498 1496 1495 1493 1493 1492 1493 1493
1563 1563 1562 1562 1561 1560 1559 1558 1557 1555 1554 1552 1549 1547 1544 1541 1538 1535 1531 1528 1525 1522 1520 1518 1517 1516 1514 1512 1510 1508 1505 1503 1500 1498 1495 1493 1491 1489 1487 1486 1486 1485 1486
1558 1558 1558 1557 1556 1555 1554 1553 1552 1551 1549 1547 1545 1543 1540 1537 1534 1531 1528 1524 1521 1518 1515 1513 1511 1510 1509 1507 1505 1502 1499 1497 1494 1491 1488 1486 1484 1483 1481 1480 1479 1478 1478
1553 1552 1552 1552 1551 1550 1550 1548 1547 1546 1544 1543 1541 1538 1536 1533 1530 1527 1523 1520 1517 1514 1511 1508 1505 1504 1502 1500 1498 1496 1493 1490 1487 1484 1482 1479 1477 1475 1474 1473 1471 1470 1469
1546 1546 1546 1546 1545 1545 1544 1543 1542 1540 1539 1537 1535 1533 1531 1528 1525 1522 1519 1516 1513 1509 1506 1503 1500 1497 1495 1493 1491 1489 1486 1483 1480 1477 1474 1472 1470 1468 1466 1465 1463 1462 1461
1539 1539 1539 1539 1539 1538 1538 1537 1536 1534 1533 1531 1529 1527 1525 1523 1520 1517 1514 1511 1508 1504 1501 1498 1495 1491 1489 1486 1484 1481 1478 1475 1472 1469 1466 1464 1462 1461 1459 1457 1455 1453 1451
1531 1531 1531 1531 1531 1531 1531 1530 1529 1528 1526 1525 1523 1520 1518 1516 1514 1511 1509 1506 1503 1500 1496 1493 1489 1486 1482 1479 1476 1473 1470 1467 1464 1461 1458 1456 1455 1453 1451 1448 1446 1443 1441
1522 1522 1523 1523 1523 1523 1523 1523 1522 1522 1520 1519 1518 1516 1514 1512 1507 1506 1504 1500 1497 1494 1491 1487 1484 1481 1477 1472 1468 1465 1461 1459 1456 1453 1451 1449 1447 1445 1443 1440 1437 1433 1431
1512 1513 1514 1514 1514 1514 1514 1514 1514 1514 1514 1512 1511 1511 1510 1506 1504 1500 1497 1495 1491 1488 1484 1481 1478 1474 1470 1466 1461 1457 1453 1450 1448 1446 1443 1441 1439 1437 1434 1431 1428 1424 1421
1501 1502 1504 1505 1505 1505 1505 1505 1506 1506 1506 1506 1504 1502 1502 1500 1498 1493 1491 1488 1485 1482 1479 1475 1472 1468 1464 1459 1454 1450 1446 1443 1440 1438 1436 1434 1431 1428 1425 1422 1418 1414 1409
1490 1491 1492 1493 1494 1495 1496 1496 1497 1497 1497 1498 1497 1496 1494 1493 1491 1488 1483 1482 1480 1477 1474 1470 1465 1461 1457 1452 1447 1443 1439 1436 1433 1430 1428 1425 1422 1418 1415 1412 1408 1404 1399
1477 1478 1480 1481 1482 1484 1485 1487 1487 1488 1488 1489 1489 1488 1487 1486 1485 1482 1478 1474 1472 1469 1466 1462 1458 1454 1449 1445 1440 1435 1431 1427 1424 1421 1418 1415 1412 1409 1406 1402 1398 1394 1390
1464 1465 1467 1468 1470 1472 1475 1477 1477 1478 1479 1480 1480 1479 1479 1477 1477 1475 1472 1467 1464 1460 1457 1454 1451 1447 1442 1437 1432 1427 1423 1419 1415 1412 1409 1406 1403 1400 1397 1394 1390 1386 1381
1454 1455 1455 1457 1459 1461 1464 1466 1467 1469 1470 1470 1471 1471 1470 1469 1468 1466 1465 1462 1456 1451 1448 1445 1443 1440 1435 1430 1424 1419 1413 1410 1406 1403 1400 1397 1394 1391 1388 1385 1381 1377 1373
1444 1444 1444 1445 1447 1450 1452 1455 1456 1459 1460 1461 1462 1462 1461 1460 1459 1458 1456 1454 1452 1444 1438 1435 1434 1430 1426 1421 1416 1411 1406 1401 1398 1394 1391 1388 1384 1381 1379 1376 1373 1369 1365
1434 1433 1432 1433 1435 1437 1440 1443 1446 1449 1450 1452 1453 1453 1452 1451 1451 1449 1447 1445 1442 1438 1430 1424 1423 1421 1417 1412 1408 1403 1398 1393 1389 1385 1381 1377 1374 1371 1368 1365 1363 1360 1356
1423 1422 1422 1423 1424 1426 1429 1432 1435 1438 1440 1442 1443 1443 1443 1443 1442 1440 1438 1436 1433 1430 1423 1415 1414 1411 1407 1403 1398 1394 1389 1384 1378 1374 1370 1366 1363 1359 1356 1354 1351 1349 1347
1413 1412 1412 1412 1413 1415 1418 1421 1424 1427 1429 1432 1433 1433 1434 1434 1432 1431 1429 1426 1424 1421 1417 1409 1404 1401 1398 1394 1389 1384 1379 1374 1369 1364 1359 1355 1351 1347 1344 1342 1340 1338 1337
1403 1401 1400 1399 1401 1403 1406 1409 1413 1416 1419 1422 1423 1424 1424 1424 1423 1422 1420 1417 1415 1412 1408 1402 1395 1392 1388 1384 1379 1373 1369 1364 1358 1353 1348 1344 1339 1335 1332 1330 1328 1327 1326
1392 1390 1389 1389 1389 1392 1395 1399 1403 1406 1409 1412 1413 1414 1414 1414 1413 1412 1410 1408 1406 1403 1399 1394 1388 1383 1378 1374 1370 1364 1357 1353 1348 1343 1338 1333 1329 1324 1320 1318 1316 1315 1314
1382 1380 1379 1378 1379 1380 1382 1387 1392 1396 1399 1402 1403 1404 1405 1404 1404 1402 1400 1398 1397 1394 1391 1386 1380 1375 1370 1366 1361 1355 1349 1343 1337 1334 1328 1323 1319 1314 1310 1307 1305 1304 1304
1372 1370 1368 1368 1368 1369 1372 1377 1382 1386 1389 1392 1393 1394 1395 1395 1394 1393 1392 1391 1390 1387 1383 1379 1373 1368 1362 1358 1353 1347 1341 1334 1325 1325 1319 1313 1310 1304 1301 1298 1295 1294 1294
1363 1360 1358 1358 1358 1360 1364 1368 1372 1376 1379 1382 1384 1385 1385 1385 1385 1383 1382 1380 1379 1377 1375 1371 1365 1359 1354 1349 1344 1337 1331 1324 1317 1313 1310 1302 1299 1294 1291 1287 1285 1284 1283
1353 1350 1349 1348 1349 1351 1355 1360 1364 1368 1370 1373 1375 1376 1376 1376 1376 1375 1373 1370 1367 1365 1363 1361 1356 1350 1345 1340 1335 1329 1322 1314 1307 1304 1300 1293 1289 1286 1282 1278 1275 1274 1273
1344 1341 1340 1339 1340 1342 1346 1351 1357 1359 1361 1364 1366 1367 1368 1368 1368 1367 1365 1362 1360 1357 1355 1352 1347 1342 1337 1332 1327 1321 1313 1307 1298 1294 1292 1287 1281 1278 1273 1269 1266 1265 1264
1335 1333 1331 1331 1331 1333 1337 1342 1348 1351 1353 1356 1358 1358 1359 1360 1359 1359 1358 1356 1352 1349 1346 1342 1337 1332 1327 1321 1317 1312 1306 1300 1292 1286 1283 1280 1275 1272 1266 1262 1260 1258 1256